星链-34935 (STARLINK-34935)

导读

STARLINK-34935是美国SpaceX星链星座的一颗卫星,于2025年8月22日发射升空。星链计划旨在构建全球卫星互联网星座,为全球偏远地区等提供高速低延迟网络服务。该卫星加入后,进一步扩充了星链星座的在轨卫星规模,提升星座的覆盖能力与服务容量,推动全球互联网络覆盖的完善。

Basic Information
目录编号:
65277
目录名称:
STARLINK-34935
国际标识:
2025-184E
轨道中心:
EARTH
卫星名称:
星链-34935
卫星全名:
星链-34935 (STARLINK-34935)
卫星状态:
在轨 (已飞行295 天)
发射日期:
2025-08-22 UTC
国别 :
美国 (US)
星等 :
--
Orbit Information
数据来源 国际轨道数据 AOE轨道数据
星历时间 2026-06-13T10:54:19+0800
14小时前
查看轨道信息
2026-06-09T00:00:00+0800
5天前
查看轨道信息
半长轴 6927.62km 6927.629km
偏心率 0.0002774 0.0002681
轨道倾角 97.364° 97.386°
近地点辐角 115.090° 119.021°
升交点赤经 215.923° 211.666°
平近点角 245.061° 232.022°
近地点 547.561km 547.634km
远地点 551.405km 551.35km
周期 95.639分钟 95.639分钟
每日圈数 15.056592 15.056564
Detailed Information
固有亮度:
5
最大亮度:
2.5
卫星平台:
Starlink V1.0
覆盖范围:
全球
运营商:
太空探索技术公司
运营商所在国:
美国
制造商(研发单位):
太空探索技术公司
制造商所在国:
美国
使用方式:
暂无
Satellite Introduction
Starlink 计划是 SpaceX 推出的全球卫星互联网项目,通过发射低轨道卫星,为全球尤其是偏远地区提供高速、低延迟的互联网服务。自 2019 年起,Starlink 已部署数千颗卫星,旨在缩小全球数字鸿沟,推动互联网普及。该项目还为军事、航空等行业提供通信支持,带来广泛经济效益。
2D Orbit Map
3D Orbit Map
Orbit Altitude Analysis Chart
Orbit Inclination Analysis Chart
Orbit Comprehensive Analysis Chart
View Comprehensive Chart